EW6767 Weather Reports


time (UTC)temp
C
wind
direction
speed
KPH
gust
KPH
rain 1hr
cm
rain 24hr
cm
rain mn
cm
humidity
%
barometer
mb
20210927063139 12 202 0.0 0.0 0.00 0.03 0.00 88 1033.6
20210927061827 13 202 0.0 0.0 0.00 0.03 0.00 87 1033.6
20210927060200 13 202 0.0 0.0 0.00 0.03 0.00 85 1033.5
20210927054625 13 202 0.0 0.0 0.00 0.03 0.00 84 1033.4
20210927053352 13 202 0.0 0.0 0.00 0.03 0.00 86 1033.4
20210927051746 12 200 0.0 0.0 0.00 0.03 0.00 88 1033.4
20210927050248 12 200 0.0 0.0 0.00 0.03 0.00 87 1033.4
20210927044625 13 200 0.0 0.0 0.00 0.03 0.00 86 1033.5
20210927043109 13 200 0.0 0.0 0.00 0.03 0.00 86 1033.4
20210927041549 13 200 0.0 0.0 0.00 0.03 0.00 85 1033.4
20210927040113 13 200 0.0 0.0 0.00 0.03 0.03 85 1033.5
20210927034610 13 200 0.0 0.0 0.00 0.03 0.03 85 1033.5
20210927033120 13 200 0.0 0.0 0.00 0.03 0.03 85 1033.5
20210927031616 13 200 0.0 0.0 0.00 0.03 0.03 85 1033.5
20210927030130 13 200 0.0 0.0 0.00 0.03 0.03 85 1033.5
20210927024611 13 200 0.0 0.0 0.00 0.03 0.03 87 1033.6
20210927023101 13 200 0.0 0.0 0.00 0.03 0.03 87 1033.7
20210927021605 13 200 0.0 0.0 0.00 0.03 0.03 85 1033.7
20210927020044 14 200 0.0 0.0 0.00 0.03 0.03 84 1033.8
20210927014721 14 200 0.0 0.0 0.00 0.03 0.03 83 1033.9
20210927013050 14 200 0.0 0.0 0.00 0.03 0.03 83 1033.9
20210927011626 15 200 0.0 0.0 0.00 0.03 0.03 82 1033.8
20210927010044 15 200 0.0 0.0 0.00 0.03 0.03 80 1033.6
20210927004611 16 200 0.0 0.0 0.00 0.03 0.03 77 1033.6
20210927003047 16 200 0.0 0.0 0.00 0.03 0.03 74 1033.5
20210927001553 17 200 0.0 0.0 0.00 0.03 0.03 72 1033.5
20210927000045 17 200 0.0 0.0 0.00 0.03 0.03 71 1033.6
20210926234540 18 200 0.0 0.0 0.00 0.03 0.03 68 1033.6
20210926233115 19 171 0.0 0.0 0.00 0.03 0.03 65 1033.7
20210926231536 20 171 0.0 0.0 0.00 0.03 0.03 58 1033.8
20210926230102 21 153 0.0 3.2 0.00 0.03 0.03 54 1033.7
20210926224551 21 141 0.0 1.6 0.00 0.03 0.03 54 1033.7
20210926223054 22 174 0.0 4.8 0.00 0.03 0.03 52 1033.7
20210926221613 22 211 0.0 3.2 0.00 0.03 0.03 51 1033.7
20210926220040 22 201 0.0 6.4 0.00 0.03 0.03 48 1033.8
20210926214613 23 175 0.0 8.0 0.00 0.03 0.03 44 1033.9
20210926213101 23 195 0.0 16.1 0.00 0.03 0.03 43 1033.7
20210926211557 23 191 1.6 8.0 0.00 0.03 0.03 41 1033.7
20210926210033 25 214 3.2 12.9 0.00 0.03 0.03 40 1033.7
20210926204624 25 199 3.2 12.9 0.00 0.03 0.03 40 1033.7
20210926203052 25 203 3.2 14.5 0.00 0.03 0.03 40 1033.8
20210926201559 25 177 3.2 9.7 0.00 0.03 0.03 42 1033.9
20210926200031 25 138 3.2 11.3 0.00 0.03 0.03 42 1034.1
20210926194618 25 217 3.2 11.3 0.00 0.03 0.03 43 1034.1
20210926193022 25 165 4.8 11.3 0.00 0.03 0.03 42 1034.1
20210926191537 25 172 1.6 8.0 0.00 0.03 0.03 43 1034.5
20210926190105 25 212 3.2 8.0 0.00 0.03 0.03 43 1034.7
20210926184531 25 156 1.6 9.7 0.00 0.03 0.03 42 1035.1
20210926183102 24 171 1.6 12.9 0.00 0.03 0.03 43 1035.3
20210926181515 24 179 1.6 8.0 0.00 0.03 0.03 44 1035.4
20210926180013 24 188 3.2 9.7 0.00 0.03 0.03 44 1035.6
20210926174540 23 257 1.6 6.4 0.00 0.03 0.03 47 1035.8
20210926173004 23 165 3.2 8.0 0.00 0.03 0.03 46 1036.0
20210926171513 23 188 1.6 6.4 0.00 0.03 0.03 48 1036.2
20210926170001 23 181 1.6 8.0 0.00 0.03 0.03 47 1036.4
20210926164654 22 227 1.6 6.4 0.00 0.03 0.03 50 1036.6
20210926163138 22 146 3.2 9.7 0.00 0.03 0.03 48 1036.8
20210926161651 21 184 3.2 8.0 0.00 0.03 0.03 50 1037.0
20210926160205 21 158 3.2 8.0 0.00 0.03 0.03 53 1037.0
20210926154634 20 212 0.0 8.0 0.00 0.03 0.03 61 1037.0
20210926153103 19 176 0.0 6.4 0.00 0.03 0.03 62 1037.0
20210926151543 18 162 1.6 8.0 0.00 0.03 0.03 66 1037.0
20210926150114 17 196 1.6 6.4 0.00 0.03 0.03 71 1037.0
20210926144527 15 210 0.0 8.0 0.00 0.03 0.03 77 1037.1
20210926143100 14 201 0.0 3.2 0.00 0.03 0.03 83 1037.0
20210926141521 13 205 0.0 3.2 0.00 0.03 0.03 85 1037.0
20210926140043 12 147 0.0 3.2 0.00 0.08 0.03 90 1036.9
20210926134509 11 219 1.6 4.8 0.00 0.08 0.03 93 1036.9
20210926133013 10 179 0.0 1.6 0.03 0.08 0.03 97 1036.8
20210926131503 10 221 0.0 1.6 0.03 0.08 0.03 97 1036.8
20210926130251 9 219 0.0 1.6 0.03 0.08 0.03 97 1036.6
20210926124635 8 155 0.0 0.0 0.03 0.08 0.03 96 1036.6
20210926123144 7 155 0.0 0.0 0.00 0.05 0.00 96 1036.7
20210926121628 7 155 0.0 0.0 0.00 0.05 0.00 96 1036.6
20210926120139 7 155 0.0 0.0 0.00 0.05 0.00 96 1036.5
20210926114627 6 155 0.0 0.0 0.00 0.05 0.00 96 1036.5
20210926113220 6 155 0.0 0.0 0.00 0.05 0.00 96 1036.3
20210926111706 6 155 0.0 0.0 0.00 0.05 0.00 96 1036.3
20210926110124 7 155 0.0 0.0 0.00 0.05 0.00 96 1036.0
20210926104600 7 155 0.0 0.0 0.00 0.05 0.00 96 1035.8
20210926103140 7 155 0.0 0.0 0.00 0.05 0.00 96 1035.8
20210926101549 7 155 0.0 0.0 0.00 0.05 0.00 95 1035.8
20210926100058 7 155 0.0 0.0 0.00 0.05 0.00 95 1035.9
20210926094652 7 155 0.0 0.0 0.00 0.05 0.00 95 1035.7
20210926093039 7 155 0.0 0.0 0.00 0.05 0.00 95 1035.6
20210926091620 7 155 0.0 0.0 0.00 0.05 0.00 95 1035.6
20210926090100 7 155 0.0 0.0 0.00 0.05 0.00 95 1035.6
20210926084609 7 155 0.0 0.0 0.00 0.05 0.00 95 1035.5
20210926083113 7 155 0.0 0.0 0.00 0.05 0.00 95 1035.4
20210926081536 7 155 0.0 0.0 0.00 0.05 0.00 95 1035.5
20210926080034 7 155 0.0 0.0 0.00 0.05 0.00 95 1035.2
20210926074620 7 155 0.0 0.0 0.00 0.05 0.00 95 1035.2
20210926073118 7 155 0.0 0.0 0.00 0.05 0.00 95 1035.2
20210926071555 7 155 0.0 0.0 0.00 0.05 0.00 95 1035.2
20210926070110 7 155 0.0 0.0 0.00 0.05 0.00 95 1035.3
20210926064557 7 155 0.0 0.0 0.00 0.05 0.00 95 1035.3